OpenBCM V1.07b12 (Linux)

Packet Radio Mailbox

SR1BSZ

[Szczecin_PL JO73GK]

 Login: GUEST





  
I0OJJ  > KEPS     15.09.25 03:06z 313 Lines 14851 Bytes #14 (0) @ AMSAT
BID : ORB25258.1
Read: GUEST
Subj: 2Line Orbital Elements 25258.AMSAT
Path: SR1BSZ<EA2RCF<I0OJJ
Sent: 250915/0025z @:I0OJJ.ITA.EU [Rome] obcm1.08-10-g596e
From: I0OJJ @ I0OJJ.ITA.EU (Gustavo)
To:   KEPS @ AMSAT
X-Info: This message was generated automatically


QST de W1STR

AMSAT Orbital Elements for Amateur Satellites in TLE Format
From Orbital Analysis Office
New England Sci-Tech STEM Education Center
Natick MA September 15, 2025
To all radio amateurs


These element sets describe the orbits of various satellites 
in use by the amateur radio community. For details see:
www.amsat.org/keplerian-elements-formats/

A daily update of element sets is available at:
www.amsat.org/tle/daily-bulletin.txt
or without bulletin text:
www.amsat.org/tle/dailytle.txt


AO-07
1 07530U 74089B   25257.27038009 -.00000045  00000-0  11859-4 0  9991
2 07530 101.9983 262.5767 0011946 298.8585  72.3803 12.53691480325944
UO-11
1 14781U 84021B   25257.13528032  .00001285  00000-0  14004-3 0  9999
2 14781  97.7656 221.6598 0008476  28.4714 331.6965 14.89664016216015
AO-27
1 22825U 93061C   25257.14090175  .00000069  00000-0  43634-4 0  9995
2 22825  98.7276 319.1369 0008345 182.5889 177.5252 14.30828248667528
FO-29
1 24278U 96046B   25257.09111592 -.00000032  00000-0  76852-6 0  9997
2 24278  98.5590 138.2203 0350903  92.5032 271.6321 13.53253556435823
NOAA-15
1 25338U 98030A   25257.29253432  .00000101  00000-0  59045-4 0  9991
2 25338  98.5321 280.0812 0011425  77.7953 282.4507 14.27015792421949
GO-32
1 25397U 98043D   25256.93175107  .00000059  00000-0  45637-4 0  9996
2 25397  98.9813 238.1082 0000557 346.4253  13.6910 14.24338210412009
ISS
1 25544U 98067A   25257.15843506  .00007863  00000-0  14416-3 0  9996
2 25544  51.6331 226.0896 0004303 337.3187  22.7612 15.50283896528963
NO-44
1 26931U 01043C   25257.25554207  .00000127  00000-0  78741-4 0  9991
2 26931  67.0490 237.8727 0007058 275.2903  84.7393 14.31777482250941
SO-50
1 27607U 02058C   25256.72827944  .00001281  00000-0  17419-3 0  9997
2 27607  64.5509 263.6860 0066179 313.8120  45.7524 14.81879010223475
CO-55
1 27844U 03031E   25257.01044196  .00000243  00000-0  12461-3 0  9994
2 27844  98.6789 264.0540 0008414 267.8444  92.1771 14.24066293152368
CO-57
1 27848U 03031J   25257.28537543  .00000202  00000-0  10823-3 0  9995
2 27848  98.6820 264.2575 0008376 286.9246  73.1014 14.23391244152126
RS-22
1 27939U 03042A   25257.25474897  .00000938  00000-0  15565-3 0  9991
2 27939  98.3368  69.1061 0012469  66.2335 107.0890 14.72581250174922
CO-58
1 28895U 05043F   25256.96265511  .00001319  00000-0  22153-3 0  9999
2 28895  98.2634  42.6079 0014430   6.2429 353.8954 14.71334897 61112
CO-65
1 32785U 08021C   25257.21974455  .00004431  00000-0  31331-3 0  9990
2 32785  97.7950 229.2082 0007958 239.9366 120.1072 15.05387943943617
CO-66
1 32791U 08021J   25256.89919046  .00011650  00000-0  52745-3 0  9998
2 32791  97.7373 239.2810 0004105 154.2699 205.8741 15.21047298945128
RS-30
1 32953U 08025A   25257.21818385  .00000021  00000-0  80670-4 0  9992
2 32953  82.5072 167.0946 0018491 191.8268 168.2380 12.43168113785401
NOAA-19
1 33591U 09005A   25257.25843131  .00000067  00000-0  59558-4 0  9992
2 33591  98.9888 322.4682 0014829  91.1979 269.0892 14.13406578855508
SRMSAT
1 37841U 11058D   25257.24063725  .00000405  00000-0  76394-4 0  9990
2 37841  19.9720 289.6050 0011936  48.7460  24.5741 14.11463844718782
ZACUBE-1
1 39417U 13066B   25256.83581019  .00005239  00000-0  44501-3 0  9991
2 39417  97.7898 213.4324 0045934  90.4207 270.2279 14.97495870639315
Delfi-N3xt
1 39428U 13066N   25257.00095624  .00006953  00000-0  68727-3 0  9995
2 39428  97.8283 173.6145 0084545  43.7906 316.9974 14.89549050633429
GOMX-1
1 39430U 13066Q   25257.28737935  .00001429  00000-0  22756-3 0  9991
2 39430  97.6728 109.9913 0130328 242.5992 116.1906 14.67992736629412
LO-74
1 39440U 13066AA  25257.29724344  .00002241  00000-0  22700-3 0  9995
2 39440  97.8551 201.2574 0059893 219.5147 140.1697 14.90661733635845
AO-73
1 39444U 13066AE  25257.15410327  .00006405  00000-0  46341-3 0  9990
2 39444  97.7927 219.5579 0043528  62.4694 298.0944 15.03601131638091
DTUSAT-2
1 40030U 14033W   25257.18174762  .00005696  00000-0  35900-3 0  9991
2 40030  98.0659 233.8039 0011236  93.6577 266.5936 15.09526042610967
EO-80
1 40032U 14033Y   25257.19697971  .00005854  00000-0  36804-3 0  9996
2 40032  98.0543 233.3399 0009849  46.0456 314.1583 15.09617061610948
LILACSAT-2
1 40908U 15049K   25257.23529132  .00009470  00000-0  23052-3 0  9993
2 40908  97.5034 280.0420 0009571 160.7389 199.4221 15.41119959553100
IO-86
1 40931U 15052B   25151.18580175  .00001241  00000-0  78118-4 0  9996
2 40931   6.0006  24.0987 0012733 338.8432  21.1169 14.78805930523159
Horyu-4
1 41340U 16012D   25257.18555633  .00023242  00000-0  53522-3 0  9992
2 41340  30.9947 200.3387 0006158 335.5766  24.4589 15.41349014527686
Lapan A3
1 41603U 16040E   25257.28540774  .00003095  00000-0  10730-3 0  9994
2 41603  97.1422 258.1571 0008836 287.1190  72.9083 15.30512738512577
CAS-2T
1 41847U 16066G   25257.23188440  .00000891  00000-0  13667-3 0  9998
2 41847  98.4129 330.8348 0344194 245.9538 110.5282 14.43711424464968
CAS-4B
1 42759U 17034B   25256.86593145  .00232711  00000-0  10209-2 0  9993
2 42759  43.0000 101.5952 0023721 257.2671 102.5549 15.82763891457747
CAS-4A
1 42761U 17034D   25256.84228653  .00214799  24156-4  81823-3 0  9992
2 42761  43.0034  97.2358 0024566 263.2631  96.5447 15.86352093457773
TechnoSat
1 42829U 17042E   25257.17686500  .00002358  00000-0  18222-3 0  9999
2 42829  97.4019  61.3465 0016286 321.7482  38.2587 15.02341509445222
AO-91
1 43017U 17073E   25257.10235876  .00006241  00000-0  31211-3 0  9990
2 43017  97.5102 125.4569 0167586 196.7830 162.7813 15.06277037423735
S-Net D
1 43186U 18014G   25256.97346219  .00003834  00000-0  22237-3 0  9994
2 43186  97.5502 158.8936 0006974 249.3664 110.6819 15.12743478416944
S-Net B
1 43187U 18014H   25257.24473093  .00003655  00000-0  21225-3 0  9994
2 43187  97.5507 159.1386 0007712 242.5962 117.4485 15.12724500416983
S-Net A
1 43188U 18014J   25256.70891760  .00003971  00000-0  23018-3 0  9993
2 43188  97.5515 158.7711 0007580 245.7513 114.2926 15.12747155416908
S-Net C
1 43189U 18014K   25256.71818286  .00004128  00000-0  23925-3 0  9999
2 43189  97.5531 158.8109 0009173 237.5345 122.5000 15.12717319415454
Ten-Koh
1 43677U 18084G   25256.93921576  .00001664  00000-0  13543-3 0  9996
2 43677  98.0815  73.0164 0005834 302.1214  57.9443 15.01008034374697
PO-101
1 43678U 18084H   25257.27669154  .00001083  00000-0  95261-4 0  9999
2 43678  98.1090  77.1536 0008383 334.3424  25.7381 14.98753828374860
QO-100
1 43700U 18090A   25257.23169597  .00000132  00000-0  00000-0 0  9991
2 43700   0.0130 118.7322 0001561  96.4357 247.5175  1.00273187 24917
MinXSS-2
1 43758U 18099A   25256.91729752  .00014753  00000-0  52930-3 0  9998
2 43758  97.4924 323.4073 0011784 170.6000 189.5462 15.28735858371672
AO-95
1 43770U 18099N   25257.15289024  .00007006  00000-0  33845-3 0  9999
2 43770  97.4817 314.2260 0009266 229.0553 130.9881 15.18920794371205
SNUSat 2
1 43782U 18099AA  25257.08900825  .00006234  00000-0  32780-3 0  9992
2 43782  97.4503 310.1075 0012160 172.0693 188.0734 15.15958157371110
SnugLite
1 43784U 18099AC  25256.96410264  .00008343  00000-0  39859-3 0  9990
2 43784  97.4314 309.7605 0004096 157.8088 202.3325 15.19272774371263
ITASat 1
1 43786U 18099AE  25257.14058325  .00004712  00000-0  26193-3 0  9992
2 43786  97.4472 309.3727 0012879 227.1337 132.8814 15.14098460371068
EAGLET 1
1 43790U 18099AJ  25257.13933287  .00003038  00000-0  19154-3 0  9994
2 43790  97.4670 308.9872 0011060 210.6876 149.3708 15.09827955370635
ESEO
1 43792U 18099AL  25256.88449666  .00001664  00000-0  12806-3 0  9990
2 43792  97.4365 300.6881 0012000 191.3620 168.7336 15.02936280370282
JO-97
1 43803U 18099AX  25256.91385535  .00010318  00000-0  44155-3 0  9999
2 43803  97.4563 315.2127 0008045 158.7035 201.4538 15.22973925371426
Suomi 100
1 43804U 18099AY  25256.89585891  .00008533  00000-0  39665-3 0  9990
2 43804  97.4629 314.1944 0012573 165.8507 194.3083 15.20153571371328
ISAT
1 43879U 18111D   25256.73103213  .00021867  00000-0  67038-3 0  9994
2 43879  97.5870 173.4493 0006786 195.2980 164.8058 15.33775409368419
UWE-4
1 43880U 18111E   25256.72753942  .00015123  00000-0  54192-3 0  9990
2 43880  97.5813 171.1924 0009254 221.4896 138.5642 15.28797909368301
Sparrow
1 43881U 18111F   25257.21522356  .00020149  00000-0  58893-3 0  9995
2 43881  97.6033 177.2272 0003519 234.2890 125.8026 15.35318626368593
Prox-1
1 44339U 19036A   25257.04670927  .00010163  00000-0  12211-2 0  9998
2 44339  23.9953 147.2667 0006813  90.7363 269.3916 14.81913476332339
Taurus 1
1 44530U 19059C   25257.34973367  .00004877  00000-0  87886-3 0  9999
2 44530  98.6173  41.4649 0009669  97.5274 262.7028 14.67006432318129
Duchifat 3
1 44854U 19089C   25257.26215554  .00058660  00000-0  79113-3 0  9992
2 44854  36.9378  96.5116 0007308 350.3614   9.7005 15.56710559318031
TO-108
1 44881U 19093C   25257.27490247  .00000706  00000-0  87253-4 0  9995
2 44881  97.7854 330.8793 0012297 274.4838  85.4973 14.85786895310435
FloripaSat 1
1 44885U 19093G   25257.21045363  .00004630  00000-0  38187-3 0  9999
2 44885  97.8166 345.0585 0008131 240.7153 119.3258 14.99495818311229
RS-44
1 44909U 19096E   25257.18581665  .00000027  00000-0  56787-4 0  9998
2 44909  82.5254 163.1115 0218529  69.7497 292.6951 12.79743431267045
UPMSat 2
1 46276U 20061E   25257.15797862  .00205640  17309-4  69862-3 0  9995
2 46276  97.2308 335.8830 0003585 223.0401 137.0592 15.89853669280680
SALSAT
1 46495U 20068K   25256.91248867  .00006430  00000-0  26759-3 0  9994
2 46495  97.8710 239.5281 0011082 176.6089 183.5224 15.24084171273191
